TANUSHA-3 (43597 NORAD) Tracking and Keplerian Element Data

This shows tracking and keplerian element data for the satellite.

Feedback or suggestion? Click here.




ElementValue
Catalog43597
NameTANUSHA-3
Epoch Orbit3892
Epoch Day112.52375261
Epoch Year2019
RAAN270.9719
Inclination51.6364
Eccentricity0.0003724
Argument of Perigee267.5663
Mean Anonmoly92.4904
Mean Motion15.60688271
Decay Rate0.00016231
L11 43597U 98067PJ 19112.52375261 .00016231 00000-0 19752-3 0 9993
L22 43597 51.6364 270.9719 0003724 267.5663 92.4904 15.60688271 38925

Live tracking and technical data element details for TANUSHA-3 (NORAD 43597). TANUSHA-3 can be tracked NOW for your location showing map with azimuth and elevation plus other details from your city location.

Track the satellite on the map from your city or location and see movement details for azimuth, elevation, latitude, longitude, range, height, and movement on the map or in text.







IsCatalogInMostPopularTable: catalog: 43597, numindb: 135
Update: records affected: 1



GetName: 43597 TANUSHA-3

Hit Count: updated at: Tue, 23 Apr 2019 20:08:55 GMT